[[{"header":{"parameterUnit":"m.s-1","parameterCategory":2,"la1":30.2991,"la2":30.254,"lo1":-89.0895,"lo2":-89.0444,"dy":0.0017,"dx":0.0017,"nx":28,"ny":28,"refTime":"2025-01-24T09:00:00:Z","depth":"0","parameterNumber":2,"parameterNumberName":"U-component_of_CURRENTS"},"data":[0,0,0,0,0,0,0,0,0,0,0,0,0,0,0,0,0,0,0,0,0,0,0,0,0,0,0,0,0,0,0,0,0,0,0,0,0,0,0,0,0,0,0,0,0,0,0,0,0,0,0,0,0,0,0,0,0,0,0.2318,0.2319,0,0.2378,0.2378,0.2378,0.2379,0.2378,0.2378,0.2378,0.2391,0.2391,0.2392,0,0,0,0,0,0,0,0,0,0,0,0,0,0.2211,0.2213,0.2318,0.2319,0.232,0.2377,0.2378,0.2379,0.2379,0.2378,0.2378,0.2377,0.239,0.2391,0.2392,0,0,0,0,0,0,0,0,0,0,0,0,0,0.226,0.2214,0.2318,0.233,0.2331,0.2377,0.2378,0.2379,0.2379,0.2378,0.2378,0.2377,0.239,0.2391,0.2392,0.2415,0,0,0.2396,0.2397,0,0,0,0,0,0,0,0,0.2257,0.2264,0.2327,0.2329,0.2331,0.2373,0.2345,0.2389,0.2379,0.2358,0.2377,0.2377,0.2383,0.2384,0.2394,0.2415,0.2416,0.2396,0.2397,0.2397,0.2398,0,0,0,0,0,0,0,0.2254,0.2261,0.2339,0.2328,0.2331,0.2334,0.234,0.2354,0.2371,0.236,0.2361,0.2372,0.2383,0.2393,0.2394,0.2416,0.2396,0.2397,0.2398,0.2398,0.2441,0.2442,0,0,0,0,0,0,0.2253,0.2258,0.2337,0.2341,0.2295,0.2337,0.2343,0.2358,0.2372,0.2374,0.2373,0.2372,0.2391,0.2393,0.2394,0.244,0.2397,0.2399,0.2399,0.2441,0.2442,0.2442,0,0,0,0,0,0,0.2251,0.226,0.2335,0.2303,0.2313,0.2339,0.2356,0.2359,0.2374,0.2382,0.2383,0.2385,0.239,0.2393,0.2411,0.244,0.2399,0.24,0.2441,0.2441,0.2442,0.252,0,0,0,0,0,0,0.2248,0.2259,0.2271,0.2303,0.2315,0.236,0.2357,0.2361,0.2383,0.2383,0.2393,0.2393,0.239,0.2409,0.2412,0.2441,0.2401,0.244,0.2441,0.2442,0.2517,0.2523,0.2528,0,0,0,0,0,0.2244,0.2263,0.2271,0.2281,0.233,0.2361,0.2367,0.2381,0.2385,0.2391,0.2401,0.2393,0.2416,0.2411,0.2415,0.2444,0.244,0.2441,0.2441,0.2514,0.2522,0.2528,0,0,0,0,0,0,0.2233,0.2266,0.2275,0.2307,0.2331,0.2362,0.2374,0.2388,0.2404,0.2401,0.2407,0.2408,0.2438,0.2423,0.2418,0.2454,0.2423,0.2425,0.2477,0.2485,0.249,0.2553,0.2402,0,0,0,0,0,0.2235,0.2251,0.2286,0.2311,0.2323,0.2351,0.2367,0.2377,0.2397,0.2403,0.2411,0.2418,0.2445,0.2449,0.2459,0.2482,0.2487,0.2497,0.2503,0.2508,0.2559,0.2567,0.258,0.2445,0.2445,0.2445,0,0,0.2243,0.226,0.2273,0.2309,0.2327,0.2363,0.2357,0.2382,0.242,0.2403,0.2441,0.2444,0.2456,0.2485,0.2495,0.2476,0.2544,0.2509,0.2515,0.2564,0.257,0.2583,0.2595,0.2446,0.2446,0.2445,0,0,0.2278,0.2275,0.2311,0.2323,0.2352,0.2367,0.2378,0.2407,0.2424,0.2455,0.2466,0.2497,0.2501,0.254,0.2557,0.2602,0.258,0.2578,0.266,0.2666,0.2678,0.2689,0.27,0.2711,0.2574,0.2574,0.2575,0,0.2297,0.2341,0.2326,0.236,0.2382,0.2375,0.2426,0.2441,0.2473,0.2498,0.2467,0.2529,0.2543,0.2624,0.2653,0.2624,0.2614,0.2635,0.2677,0.2688,0.2698,0.2706,0.2718,0.2578,0.2578,0.2577,0.2577,0,0.2371,0.2393,0.2408,0.2449,0.2462,0.2494,0.2512,0.2525,0.253,0.2553,0.2607,0.2624,0.2658,0.2668,0.2691,0.2774,0.2739,0.2689,0.2667,0.2717,0.2721,0.2732,0.2584,0.2582,0.2581,0.258,0,0,0.246,0.2469,0.2473,0.2467,0.2511,0.2504,0.2573,0.2627,0.2639,0.2668,0.2711,0.2799,0.2789,0.2813,0.2822,0.2863,0.2936,0.2823,0.2821,0.2851,0.295,0.2995,0.301,0.2877,0.2879,0.2881,0.2921,0,0.254,0.2576,0.2593,0.2615,0.2621,0.2628,0.2666,0.2693,0.2709,0.2725,0.2781,0.2805,0.2843,0.2842,0.2903,0.2919,0.297,0.2932,0.2886,0.2886,0.2933,0.3027,0.2986,0.3024,0.2931,0.2933,0.2934,0,0.2615,0.2619,0.2657,0.2632,0.2641,0.2654,0.2666,0.2708,0.2754,0.2766,0.2828,0.2834,0.2946,0.2921,0.3029,0.2991,0.3011,0.3022,0.302,0.3059,0.2953,0.296,0.3047,0.2882,0.295,0.2949,0.2948,0,0.2596,0.2646,0.2654,0.2653,0.2651,0.2664,0.2677,0.2712,0.2734,0.2787,0.279,0.2886,0.2908,0.2971,0.3049,0.3018,0.3136,0.306,0.3129,0.3129,0.3094,0.3089,0.3042,0.3149,0.3149,0.3149,0.3148,0,0.262,0.2605,0.2621,0.2595,0.2585,0.2608,0.2608,0.2635,0.2687,0.2707,0.2793,0.2828,0.2921,0.2994,0.3055,0.3158,0.3132,0.3204,0.3168,0.3117,0.3114,0.2967,0.2882,0.315,0.315,0.3149,0.3149,0,0.2524,0.2559,0.2538,0.2553,0.255,0.2519,0.2545,0.2541,0.2612,0.2644,0.2665,0.2786,0.2911,0.3018,0.3115,0.3156,0.3145,0.3272,0.3229,0.3191,0.3103,0.3025,0.2922,0.2834,0.3347,0.3349,0.335,0,0.2456,0.2445,0.2462,0.2449,0.2441,0.2424,0.2414,0.2481,0.25,0.262,0.263,0.2779,0.2888,0.3084,0.3221,0.3355,0.3201,0.3345,0.3314,0.3155,0.3038,0.2882,0.2801,0.3272,0.3273,0.3273,0.3274,0,0.2336,0.2357,0.2345,0.2332,0.2311,0.2285,0.2291,0.2302,0.2398,0.2456,0.2555,0.2661,0.2928,0.3082,0.3297,0.3372,0.3166,0.3362,0.319,0.3018,0.285,0.2726,0.3178,0.3279,0.3278,0.3278,0.3278,0.3277,0.2248,0.2219,0.2237,0.2203,0.2186,0.2144,0.2106,0.2165,0.22,0.2294,0.2444,0.2606,0.2874,0.3213,0.3271,0.3303,0.3236,0.3196,0.3126,0.299,0.2885,0.3387,0.3451,0.3451,0.3452,0.3452,0.3452,0,0.2135,0.213,0.2108,0.2066,0.2001,0.2028,0.2015,0.1994,0.2026,0.219,0.2305,0.2591,0.2792,0.3001,0.3152,0.304,0.292,0.2918,0.2648,0.259,0.3034,0.3011,0.2991,0.2991,0.2991,0.2992,0.2992,0.2992,0.2086,0.2033,0.2023,0.1897,0.1858,0.175,0.1726,0.1749,0.1848,0.1986,0.2159,0.2368,0.2604,0.2758,0.2721,0.27,0.2405,0.2358,0.2255,0.2518,0.2535,0.2551,0.2508,0.2382,0.2382,0.1744,0.1739,0.1735]},{"header":{"parameterUnit":"m.s-1","parameterCategory":2,"la1":30.2991,"la2":30.254,"lo1":-89.0895,"lo2":-89.0444,"dy":0.0017,"dx":0.0017,"nx":28,"ny":28,"refTime":"2025-01-24T09:00:00:Z","depth":"0","parameterNumber":3,"parameterNumberName":"V-component_of_CURRENTS"},"data":[0,0,0,0,0,0,0,0,0,0,0,0,0,0,0,0,0,0,0,0,0,0,0,0,0,0,0,0,0,0,0,0,0,0,0,0,0,0,0,0,0,0,0,0,0,0,0,0,0,0,0,0,0,0,0,0,0,0,-0.0017,-0.0018,0,-0.0068,-0.0069,-0.0069,-0.01,-0.01,-0.01,-0.01,-0.0173,-0.0175,-0.0177,0,0,0,0,0,0,0,0,0,0,0,0,0,0.001,0.001,-0.0017,-0.0018,-0.0018,-0.0068,-0.0069,-0.0069,-0.01,-0.01,-0.01,-0.01,-0.0173,-0.0175,-0.0177,0,0,0,0,0,0,0,0,0,0,0,0,0,-0.0017,0.001,-0.0017,-0.004,-0.0042,-0.0068,-0.0069,-0.007,-0.01,-0.01,-0.01,-0.01,-0.0172,-0.0175,-0.0177,-0.019,0,0,-0.0186,-0.0187,0,0,0,0,0,0,0,0,-0.0015,-0.0018,-0.0036,-0.0038,-0.0041,-0.0078,-0.0086,-0.0111,-0.0099,-0.0078,-0.01,-0.01,-0.0143,-0.0148,-0.0157,-0.0193,-0.0196,-0.0186,-0.0188,-0.0189,-0.019,0,0,0,0,0,0,0,-0.0013,-0.0016,-0.0037,-0.0036,-0.0039,-0.0062,-0.0066,-0.0091,-0.0109,-0.008,-0.0082,-0.0088,-0.0145,-0.0154,-0.0159,-0.0198,-0.0186,-0.0188,-0.019,-0.0191,-0.0229,-0.0228,0,0,0,0,0,0,-0.0005,-0.0014,-0.0036,-0.0039,-0.0029,-0.0062,-0.0066,-0.0066,-0.0108,-0.0115,-0.0087,-0.0089,-0.015,-0.0156,-0.0162,-0.01,-0.0189,-0.0191,-0.0193,-0.0229,-0.0229,-0.0228,0,0,0,0,0,0,-0.0004,-0.0006,-0.0034,-0.0028,-0.0033,-0.0062,-0.0061,-0.0067,-0.0073,-0.0114,-0.0121,-0.0089,-0.015,-0.0158,-0.017,-0.0106,-0.0192,-0.0195,-0.023,-0.0229,-0.0228,-0.0028,0,0,0,0,0,0,-0.0003,-0.0005,-0.0003,-0.0027,-0.0033,-0.0034,-0.0061,-0.0067,-0.0077,-0.0079,-0.0117,-0.0125,-0.0151,-0.0165,-0.0172,-0.0112,-0.0197,-0.0231,-0.023,-0.0229,-0.0035,-0.002,-0.0007,0,0,0,0,0,-0.0001,0.001,-0.0002,-0.0005,-0.0029,-0.0033,-0.0038,-0.006,-0.0076,-0.0069,-0.0094,-0.0123,-0.0163,-0.0167,-0.0175,-0.0114,-0.0231,-0.023,-0.0229,-0.0041,-0.0023,-0.0008,0,0,0,0,0,0,0.0021,0.0006,-0.0007,-0.0002,-0.0012,-0.0038,-0.0038,-0.0055,-0.007,-0.0075,-0.0115,-0.0123,-0.0111,-0.0157,-0.016,-0.0129,-0.0203,-0.0203,-0.0058,-0.0041,-0.0027,0.0087,-0.0199,0,0,0,0,0,0.0027,0.0032,0.0013,0.0017,0.0014,-0.0013,-0.002,-0.0032,-0.005,-0.0058,-0.0084,-0.0112,-0.0114,-0.0113,-0.0142,-0.0121,-0.0157,-0.0094,-0.008,-0.0067,0.0015,-0.0005,0.0017,-0.0223,-0.0223,-0.0223,0,0,0.0036,0.0028,0.0029,0.0022,0.0009,0.0047,-0.0017,-0.0019,0.0035,-0.0064,-0.0017,-0.0072,-0.0105,-0.0075,-0.0073,-0.0099,-0.0033,-0.0065,-0.0053,0.0024,-0.0001,0.0023,0.0044,-0.0222,-0.0222,-0.0223,0,0,0.0079,0.005,0.0082,0.0085,0.0076,0.0074,0.0079,0.0059,0.0071,0.0089,0.0048,0.0051,0.0008,0.0039,0.0042,0.0113,0.0031,0.0064,0.0255,0.0232,0.0254,0.0273,0.021,0.0222,0.0087,0.0087,0.0088,0,0.0096,0.0147,0.0089,0.0133,0.0175,0.0101,0.0182,0.0177,0.016,0.0215,0.0126,0.0146,0.0093,0.0213,0.0235,0.0161,0.0103,0.0203,0.0259,0.0276,0.0293,0.0224,0.0235,0.0097,0.0096,0.0095,0.0094,0,0.0184,0.0227,0.0246,0.0298,0.0321,0.0369,0.0373,0.0402,0.0388,0.0399,0.0468,0.039,0.0422,0.0386,0.0341,0.0448,0.035,0.0269,0.0235,0.0331,0.0249,0.0257,0.0111,0.0108,0.0105,0.0102,0,0,0.0266,0.0308,0.0327,0.0396,0.0431,0.0469,0.0571,0.0678,0.0762,0.0724,0.0844,0.084,0.078,0.0781,0.0701,0.0698,0.0721,0.0551,0.0545,0.0526,0.0637,0.0562,0.0561,0.0634,0.0637,0.064,0.0518,0,0.0385,0.0507,0.0514,0.0671,0.0751,0.0761,0.0866,0.0937,0.0951,0.1016,0.0999,0.1019,0.0931,0.0908,0.0919,0.0747,0.0758,0.0761,0.0519,0.0513,0.0467,0.0576,0.0595,0.049,0.0525,0.0526,0.0527,0,0.0526,0.0591,0.0752,0.0898,0.0938,0.1014,0.1197,0.1271,0.1349,0.1349,0.1401,0.1314,0.1345,0.119,0.1089,0.1078,0.0922,0.0787,0.0776,0.0671,0.0458,0.0405,0.0501,0.0336,0.0538,0.0537,0.0536,0,0.0653,0.0795,0.0938,0.098,0.1098,0.1207,0.1286,0.1389,0.1458,0.1531,0.1531,0.1564,0.1488,0.1379,0.1114,0.1087,0.0935,0.0837,0.0654,0.0642,0.0606,0.0586,0.0566,0.0818,0.0818,0.0818,0.0819,0,0.0814,0.093,0.0998,0.1067,0.1246,0.1309,0.1481,0.1556,0.1636,0.1703,0.1681,0.1686,0.152,0.139,0.1194,0.0951,0.0997,0.0753,0.0645,0.0663,0.0651,0.0459,0.034,0.0813,0.0815,0.0815,0.0816,0,0.0912,0.0965,0.1109,0.1243,0.1291,0.1405,0.1538,0.1637,0.1702,0.1771,0.1779,0.1749,0.1584,0.1398,0.1152,0.1002,0.0698,0.0693,0.0711,0.0612,0.0318,0.0208,0.0127,0.0073,0.0513,0.0511,0.0509,0,0.0963,0.1042,0.1178,0.1235,0.1287,0.1435,0.1526,0.1649,0.1725,0.1792,0.1815,0.1707,0.1641,0.1295,0.1027,0.0739,0.0587,0.055,0.0554,0.0376,0.0172,0.014,0.01,0.054,0.0539,0.0538,0.0537,0,0.1027,0.1059,0.114,0.1249,0.1349,0.1475,0.1606,0.1673,0.1795,0.1845,0.1862,0.1821,0.154,0.1288,0.0923,0.0718,0.0467,0.0518,0.0352,0.0256,0.0208,0.0076,0.0498,0.0528,0.0529,0.053,0.053,0.0531,0.1022,0.1069,0.1144,0.1253,0.1364,0.1485,0.1572,0.1687,0.1797,0.1868,0.1866,0.1827,0.1536,0.1065,0.078,0.0324,0.0345,0.0196,0.0088,0.0082,0.0041,0.044,0.0333,0.0333,0.0333,0.0332,0.0332,0,0.0993,0.1046,0.1141,0.1261,0.1358,0.1439,0.1598,0.1661,0.1753,0.1842,0.1861,0.1723,0.134,0.0936,0.0357,-0.0007,-0.0075,-0.0212,-0.0229,-0.0242,0.0127,0.0141,-0.0032,-0.0031,-0.0031,-0.0031,-0.0031,-0.0031,0.0969,0.1024,0.1079,0.1209,0.1299,0.1414,0.1493,0.1583,0.167,0.172,0.1734,0.1755,0.1431,0.0473,-0.0231,-0.0383,-0.0601,-0.0662,-0.0776,-0.0534,-0.0503,-0.0473,-0.0482,-0.0782,-0.0783,-0.103,-0.1033,-0.1036]}],[{"header":{"parameterUnit":"m.s-1","parameterCategory":2,"la1":30.2991,"la2":30.254,"lo1":-89.0895,"lo2":-89.0444,"dy":0.0017,"dx":0.0017,"nx":28,"ny":28,"refTime":"2025-01-24T09:00:00:Z","depth":"2","parameterNumber":2,"parameterNumberName":"U-component_of_CURRENTS"},"data":[0,0,0,0,0,0,0,0,0,0,0,0,0,0,0,0,0,0,0,0,0,0,0,0,0,0,0,0,0,0,0,0,0,0,0,0,0,0,0,0,0,0,0,0,0,0,0,0,0,0,0,0,0,0,0,0,0,0,0.2094,0.2095,0,0.2163,0.2163,0.2163,0.2173,0.2173,0.2173,0.2173,0.2237,0.2239,0.2241,0,0,0,0,0,0,0,0,0,0,0,0,0,0.1981,0.1982,0.2093,0.2095,0.2097,0.2163,0.2163,0.2163,0.2173,0.2173,0.2173,0.2173,0.2237,0.2239,0.2241,0,0,0,0,0,0,0,0,0,0,0,0,0,0.2031,0.1982,0.2093,0.2115,0.2118,0.2163,0.2163,0.2164,0.2173,0.2173,0.2173,0.2173,0.2236,0.2239,0.2241,0.2255,0,0,0.2249,0.225,0,0,0,0,0,0,0,0,0.2028,0.2034,0.211,0.2114,0.2117,0.2166,0.2148,0.2197,0.2173,0.2144,0.2173,0.2173,0.2218,0.2222,0.2224,0.2258,0.2261,0.2249,0.225,0.2251,0.2252,0,0,0,0,0,0,0,0.2024,0.2031,0.2113,0.2112,0.2116,0.2126,0.2132,0.2156,0.2174,0.2147,0.215,0.2169,0.2219,0.2222,0.2226,0.2262,0.2249,0.2251,0.2253,0.2254,0.2347,0.2348,0,0,0,0,0,0,0.203,0.2028,0.2111,0.2116,0.208,0.2128,0.2135,0.2144,0.2174,0.2181,0.2169,0.217,0.2217,0.2223,0.2228,0.2348,0.2251,0.2254,0.2255,0.2346,0.2348,0.2349,0,0,0,0,0,0,0.2027,0.2037,0.2109,0.208,0.2091,0.2131,0.2141,0.2146,0.2156,0.2192,0.2197,0.2176,0.2218,0.2225,0.2253,0.2347,0.2255,0.2257,0.2345,0.2347,0.2348,0.2523,0,0,0,0,0,0,0.2024,0.2035,0.2043,0.208,0.2093,0.2134,0.2142,0.2147,0.2171,0.2172,0.22,0.2205,0.2218,0.2249,0.2255,0.2349,0.2259,0.2344,0.2346,0.2348,0.2516,0.2531,0.2543,0,0,0,0,0,0.2019,0.2039,0.2042,0.2053,0.2103,0.2135,0.2141,0.2165,0.2171,0.2173,0.2194,0.2205,0.2266,0.2251,0.2259,0.2355,0.2343,0.2345,0.2348,0.251,0.2528,0.2542,0,0,0,0,0,0,0.2004,0.2044,0.2048,0.2081,0.2103,0.2139,0.2153,0.2168,0.2185,0.2191,0.2212,0.2219,0.2281,0.2268,0.2252,0.2378,0.2309,0.2313,0.243,0.2447,0.246,0.2506,0.2261,0,0,0,0,0,0.2003,0.2023,0.2056,0.2083,0.209,0.2118,0.2136,0.2155,0.2181,0.2188,0.2217,0.2246,0.2295,0.2327,0.2344,0.2412,0.2387,0.2474,0.2487,0.2499,0.2536,0.2561,0.2582,0.2356,0.2356,0.2356,0,0,0.2003,0.2033,0.2042,0.208,0.2095,0.2145,0.2126,0.2158,0.2237,0.2194,0.2289,0.2285,0.2313,0.2395,0.2425,0.2404,0.254,0.2502,0.2513,0.2544,0.2566,0.2589,0.2609,0.2358,0.2357,0.2357,0,0,0.2037,0.2036,0.2069,0.209,0.2131,0.216,0.2171,0.221,0.2256,0.2317,0.2335,0.2392,0.2425,0.2511,0.2549,0.264,0.2596,0.2623,0.2762,0.2786,0.2807,0.2824,0.279,0.2803,0.2649,0.265,0.265,0,0.2052,0.2113,0.2083,0.213,0.2191,0.2173,0.2255,0.2291,0.2348,0.2418,0.2359,0.248,0.2507,0.2677,0.2716,0.2689,0.2643,0.2713,0.281,0.2827,0.2842,0.2803,0.2815,0.2658,0.2657,0.2656,0.2656,0,0.2126,0.2175,0.2196,0.2267,0.2299,0.2368,0.2418,0.2461,0.2497,0.2558,0.268,0.2693,0.2763,0.2798,0.2795,0.2946,0.2855,0.2814,0.2784,0.2877,0.2826,0.2837,0.2671,0.2668,0.2665,0.2663,0,0,0.2221,0.2254,0.2282,0.233,0.2402,0.2442,0.2557,0.269,0.2776,0.2816,0.2932,0.3058,0.3027,0.3065,0.3069,0.3129,0.32,0.3024,0.3021,0.3016,0.3192,0.3063,0.306,0.3155,0.3159,0.3162,0.3103,0,0.2334,0.2446,0.246,0.2593,0.265,0.268,0.2794,0.2888,0.2937,0.301,0.3081,0.3151,0.3141,0.3147,0.3217,0.3156,0.3237,0.3216,0.3081,0.3077,0.2975,0.3073,0.2839,0.2762,0.3112,0.3114,0.3115,0,0.2461,0.2517,0.266,0.2763,0.28,0.2875,0.3033,0.3119,0.3214,0.3238,0.3303,0.3286,0.3379,0.3318,0.3353,0.3312,0.33,0.3276,0.3271,0.3108,0.297,0.2729,0.2766,0.3131,0.3129,0.3128,0.3127,0,0.2558,0.2688,0.2818,0.2853,0.2943,0.3032,0.3097,0.3203,0.3273,0.3341,0.3345,0.3424,0.3421,0.3408,0.3345,0.3328,0.333,0.3286,0.3197,0.3183,0.2943,0.2903,0.3399,0.3399,0.34,0.34,0.34,0,0.2691,0.2814,0.286,0.2909,0.3063,0.3096,0.3234,0.3298,0.3353,0.3409,0.3439,0.3438,0.3446,0.3422,0.3359,0.3268,0.3337,0.3251,0.3187,0.2988,0.2955,0.3242,0.3224,0.3397,0.3398,0.3398,0.3399,0,0.2778,0.2835,0.2952,0.3046,0.3085,0.3174,0.3258,0.3329,0.3381,0.3416,0.3425,0.3453,0.3385,0.3382,0.3345,0.3287,0.3209,0.3205,0.2941,0.2851,0.3038,0.303,0.3059,0.3054,0.3051,0.3048,0.3045,0,0.284,0.2884,0.2991,0.3048,0.3098,0.3199,0.3264,0.3329,0.3353,0.3388,0.3383,0.3386,0.3294,0.3172,0.3087,0.297,0.3129,0.2765,0.2753,0.3082,0.3017,0.3014,0.3011,0.2476,0.2469,0.2463,0.2458,0,0.2902,0.2936,0.3007,0.3075,0.3155,0.3225,0.3286,0.3273,0.3317,0.33,0.3207,0.3124,0.305,0.2785,0.273,0.2645,0.2733,0.2644,0.3065,0.2606,0.253,0.2466,0.2483,0.2407,0.2412,0.2416,0.2419,0.2421,0.296,0.299,0.3032,0.3112,0.3182,0.3186,0.3175,0.3127,0.306,0.2887,0.2929,0.2688,0.2656,0.2357,0.2253,0.2232,0.2419,0.234,0.2359,0.2384,0.2335,0.2258,0.2071,0.2074,0.2076,0.2079,0.2081,0,0.2977,0.3005,0.3058,0.3117,0.3133,0.3188,0.3157,0.2985,0.2755,0.2606,0.2414,0.208,0.1883,0.1895,0.1767,0.1761,0.1769,0.1718,0.1719,0.1769,0.1815,0.174,0.1316,0.1314,0.1312,0.131,0,0,0.3007,0.3033,0.3019,0.3028,0.3062,0.3007,0.2942,0.2591,0.2388,0.1948,0.1772,0.1713,0.1798,0.1507,0.1481,0.1388,0.1575,0.1339,0.1949,0.1999,0.2041,0.2164,0.2104,0,0,0,0,0]},{"header":{"parameterUnit":"m.s-1","parameterCategory":2,"la1":30.2991,"la2":30.254,"lo1":-89.0895,"lo2":-89.0444,"dy":0.0017,"dx":0.0017,"nx":28,"ny":28,"refTime":"2025-01-24T09:00:00:Z","depth":"2","parameterNumber":3,"parameterNumberName":"V-component_of_CURRENTS"},"data":[0,0,0,0,0,0,0,0,0,0,0,0,0,0,0,0,0,0,0,0,0,0,0,0,0,0,0,0,0,0,0,0,0,0,0,0,0,0,0,0,0,0,0,0,0,0,0,0,0,0,0,0,0,0,0,0,0,0,0.0147,0.0146,0,0.0124,0.0123,0.0123,0.009,0.009,0.0089,0.0089,0.0032,0.0031,0.0031,0,0,0,0,0,0,0,0,0,0,0,0,0,0.0132,0.0133,0.0147,0.0146,0.0146,0.0124,0.0123,0.0123,0.009,0.009,0.0089,0.0088,0.0033,0.0032,0.003,0,0,0,0,0,0,0,0,0,0,0,0,0,0.0127,0.0133,0.0147,0.0127,0.0125,0.0124,0.0123,0.0123,0.0091,0.009,0.0089,0.0088,0.0033,0.0032,0.003,0.0039,0,0,0.0026,0.0025,0,0,0,0,0,0,0,0,0.0127,0.0128,0.013,0.0128,0.0126,0.0109,0.0097,0.0093,0.0091,0.0104,0.0089,0.0088,0.0055,0.0052,0.0051,0.0037,0.0034,0.0026,0.0025,0.0024,0.0024,0,0,0,0,0,0,0,0.0128,0.0128,0.0138,0.013,0.0127,0.0108,0.0107,0.0096,0.0085,0.0103,0.01,0.0097,0.0054,0.0052,0.0049,0.0033,0.0026,0.0025,0.0024,0.0023,-0.0012,-0.0012,0,0,0,0,0,0,0.0133,0.0129,0.0139,0.0137,0.0124,0.011,0.0108,0.0115,0.0085,0.008,0.0098,0.0096,0.0055,0.0051,0.0047,0.0058,0.0024,0.0023,0.0022,-0.0012,-0.0012,-0.0012,0,0,0,0,0,0,0.0133,0.0134,0.0139,0.0131,0.0131,0.0111,0.0119,0.0115,0.011,0.0082,0.0076,0.0096,0.0054,0.0049,0.0048,0.0055,0.0022,0.0021,-0.0012,-0.0012,-0.0012,0.0078,0,0,0,0,0,0,0.0133,0.0135,0.0142,0.0132,0.0131,0.0144,0.012,0.0116,0.0109,0.0106,0.0078,0.0072,0.0053,0.005,0.0047,0.0052,0.002,-0.0012,-0.0012,-0.0012,0.0075,0.0081,0.0086,0,0,0,0,0,0.0132,0.015,0.0143,0.0143,0.0142,0.0145,0.0143,0.0125,0.011,0.0115,0.0101,0.0073,0.0045,0.0051,0.0046,0.0051,-0.0012,-0.0012,-0.0012,0.0073,0.008,0.0086,0,0,0,0,0,0,0.0146,0.0148,0.014,0.0156,0.0151,0.0139,0.0144,0.0129,0.0122,0.0117,0.0088,0.0082,0.0076,0.0051,0.0057,0.0035,0.0005,0.0004,0.0071,0.0077,0.0083,0.0131,0.0019,0,0,0,0,0,0.0153,0.0167,0.0161,0.0172,0.0175,0.0159,0.0157,0.0145,0.0136,0.0132,0.0112,0.0087,0.0072,0.0067,0.0044,0.0049,0.0,0.0041,0.0047,0.0052,0.0085,0.0002,0.0003,-0.0013,-0.0013,-0.0013,0,0,0.0159,0.0163,0.0168,0.0176,0.0172,0.0181,0.0156,0.0158,0.0167,0.0127,0.0134,0.0106,0.0075,0.0075,0.0069,0.0059,0.0026,0.0051,0.0056,0.0087,0.0002,0.0003,0.0005,-0.0013,-0.0013,-0.0013,0,0,0.0175,0.0186,0.0197,0.0202,0.0201,0.0198,0.02,0.019,0.019,0.0195,0.0163,0.0155,0.0126,0.0117,0.0106,0.0129,0.0053,0.0098,0.0177,0.0095,0.0097,0.0097,0.0026,0.002,0.0108,0.0108,0.0108,0,0.0178,0.0198,0.02,0.0213,0.0226,0.0209,0.0226,0.0228,0.0216,0.0228,0.0205,0.0175,0.0153,0.0161,0.0179,0.0145,0.0083,0.016,0.0105,0.0104,0.0103,0.003,0.0022,0.0112,0.0112,0.0111,0.0111,0,0.0198,0.0217,0.023,0.0246,0.026,0.0275,0.0281,0.0287,0.0282,0.0284,0.0287,0.026,0.0248,0.0227,0.0225,0.0211,0.0162,0.0116,0.0095,0.0111,0.0032,0.0021,0.0118,0.0117,0.0115,0.0114,0,0,0.0193,0.0236,0.0242,0.026,0.0284,0.0297,0.0324,0.0352,0.036,0.0359,0.036,0.0376,0.0364,0.0353,0.0321,0.0278,0.0224,0.0215,0.0209,0.016,0.004,0.0071,0.0062,0.0154,0.0153,0.0152,-0.0016,0,0.0206,0.0244,0.0271,0.0312,0.0328,0.035,0.038,0.0402,0.0402,0.0393,0.0392,0.0379,0.0407,0.0387,0.0362,0.0224,0.0203,0.0275,0.0022,0.0016,0.0053,0.0054,0.0073,-0.0068,-0.0026,-0.0028,-0.0029,0,0.0204,0.0236,0.0284,0.0344,0.0359,0.0397,0.0439,0.0464,0.0468,0.0462,0.0472,0.0436,0.0412,0.0399,0.026,0.0293,0.0216,0.0123,0.0112,0.0114,0.003,-0.0077,-0.0089,-0.0047,-0.0046,-0.0044,-0.0043,0,0.0173,0.0243,0.0289,0.031,0.0373,0.0421,0.047,0.0497,0.0497,0.0502,0.0467,0.0445,0.0393,0.0292,0.0194,0.0188,0.0005,-0.0056,-0.0083,-0.0084,-0.0124,-0.0125,-0.012,-0.012,-0.0119,-0.0119,-0.0118,0,0.0159,0.0195,0.0292,0.0312,0.0374,0.0439,0.0481,0.0517,0.0518,0.0526,0.0517,0.0497,0.0362,0.026,0.0165,0.003,-0.0013,-0.0051,-0.0117,-0.0093,-0.0089,-0.0111,-0.0108,-0.0125,-0.0124,-0.0123,-0.0122,0,0.011,0.0161,0.0213,0.0318,0.0352,0.0407,0.0478,0.0505,0.0518,0.0504,0.0501,0.0472,0.0383,0.0257,0.0066,-0.0011,-0.0158,-0.017,-0.0109,-0.0161,-0.0198,-0.0188,-0.0291,-0.0291,-0.0291,-0.0292,-0.0292,0,0.0096,0.0117,0.0211,0.026,0.0324,0.0402,0.0455,0.0494,0.0513,0.0519,0.0513,0.0448,0.0466,0.0216,0.0053,-0.013,-0.012,-0.0233,-0.0211,-0.0156,-0.0212,-0.0202,-0.0193,-0.0258,-0.0258,-0.0257,-0.0257,0,0.0095,0.0126,0.0186,0.0269,0.0347,0.0389,0.0477,0.0465,0.0525,0.0553,0.0623,0.0642,0.046,0.0314,0.0079,-0.0038,-0.0217,-0.0234,-0.0238,-0.0183,-0.0129,-0.0181,-0.0173,-0.0256,-0.0256,-0.0256,-0.0256,-0.0256,0.0128,0.0161,0.0251,0.0325,0.0393,0.0446,0.048,0.0575,0.0639,0.0726,0.0719,0.0774,0.0557,0.029,0.0083,-0.0157,-0.0163,-0.0267,-0.0267,-0.0267,-0.0198,-0.0144,-0.0262,-0.0262,-0.0262,-0.0263,-0.0263,0,0.0215,0.0257,0.0321,0.041,0.0475,0.0501,0.0549,0.0606,0.0747,0.0829,0.0927,0.0763,0.0595,0.0354,0.0003,-0.0206,-0.0227,-0.0269,-0.0261,-0.0261,-0.0262,-0.0192,-0.0255,-0.0255,-0.0256,-0.0256,0,0,0.0281,0.0356,0.0365,0.0485,0.0552,0.0627,0.0656,0.0765,0.0822,0.0965,0.0999,0.0971,0.066,0.0411,0.0129,-0.0065,-0.0111,-0.0097,-0.0085,-0.0044,-0.0042,-0.0248,-0.0139,0,0,0,0,0]}],[{"header":{"parameterUnit":"m.s-1","parameterCategory":2,"la1":30.2991,"la2":30.254,"lo1":-89.0895,"lo2":-89.0444,"dy":0.0017,"dx":0.0017,"nx":28,"ny":28,"refTime":"2025-01-24T09:00:00:Z","depth":"4","parameterNumber":2,"parameterNumberName":"U-component_of_CURRENTS"},"data":[0,0,0,0,0,0,0,0,0,0,0,0,0,0,0,0,0,0,0,0,0,0,0,0,0,0,0,0,0,0,0,0,0,0,0,0,0,0,0,0,0,0,0,0,0,0,0,0,0,0,0,0,0,0,0,0,0,0,0.1209,0.121,0,0.1243,0.1243,0.1243,0.1275,0.1276,0.1277,0.1277,0.1284,0.1284,0.1284,0,0,0,0,0,0,0,0,0,0,0,0,0,0.1172,0.1173,0.1209,0.121,0.121,0.1243,0.1243,0.1243,0.1275,0.1276,0.1277,0.1278,0.1284,0.1284,0.1283,0,0,0,0,0,0,0,0,0,0,0,0,0,0.1193,0.1173,0.1209,0.1232,0.1235,0.1243,0.1243,0.1243,0.1275,0.1276,0.1277,0.1278,0.1285,0.1284,0.1283,0.126,0,0,0.1281,0.1281,0,0,0,0,0,0,0,0,0.1191,0.1194,0.1228,0.1231,0.1234,0.1258,0.1233,0.1248,0.1275,0.1257,0.1277,0.1278,0.1274,0.1274,0.1275,0.126,0.126,0.1281,0.1281,0.1281,0.1281,0,0,0,0,0,0,0,0.119,0.1192,0.122,0.1229,0.1232,0.1241,0.1245,0.1236,0.1257,0.1259,0.1262,0.1269,0.1275,0.1276,0.1275,0.126,0.1281,0.1281,0.128,0.128,0.1354,0.1357,0,0,0,0,0,0,0.119,0.1191,0.1219,0.1221,0.1218,0.1241,0.1245,0.1247,0.1258,0.1261,0.1269,0.1271,0.1276,0.1276,0.1276,0.1325,0.1281,0.128,0.128,0.1352,0.1355,0.1357,0,0,0,0,0,0,0.1189,0.1192,0.1217,0.1209,0.1214,0.1241,0.1243,0.1247,0.1277,0.1266,0.1269,0.1297,0.1277,0.1277,0.1304,0.1322,0.128,0.1279,0.1349,0.1353,0.1356,0.1374,0,0,0,0,0,0,0.1188,0.1191,0.1206,0.1209,0.1214,0.1239,0.1242,0.1247,0.1279,0.1283,0.129,0.1291,0.1278,0.1305,0.1303,0.1321,0.1279,0.1346,0.1351,0.1355,0.137,0.1377,0.1383,0,0,0,0,0,0.1186,0.1194,0.1206,0.121,0.1228,0.124,0.1244,0.1264,0.128,0.1294,0.1311,0.1292,0.1333,0.1306,0.1303,0.1321,0.1344,0.135,0.1355,0.1367,0.1376,0.1383,0,0,0,0,0,0,0.1182,0.1199,0.1211,0.1224,0.1242,0.1247,0.1264,0.128,0.1304,0.1317,0.1308,0.131,0.1338,0.134,0.1311,0.1363,0.134,0.1345,0.1351,0.1359,0.1365,0.1376,0.1278,0,0,0,0,0,0.1188,0.1204,0.1218,0.1232,0.1242,0.126,0.1273,0.1289,0.1305,0.1318,0.1327,0.1345,0.1353,0.1365,0.137,0.1392,0.1382,0.1411,0.1418,0.1423,0.1436,0.1423,0.1428,0.1375,0.1375,0.1375,0,0,0.1191,0.1204,0.1213,0.1234,0.1248,0.1264,0.127,0.1298,0.1318,0.1313,0.1351,0.136,0.1365,0.139,0.1406,0.1397,0.1439,0.143,0.1434,0.1444,0.1429,0.1433,0.1437,0.1378,0.1378,0.1377,0,0,0.1193,0.1215,0.1227,0.1246,0.1278,0.1286,0.1302,0.1326,0.1347,0.1384,0.1386,0.1417,0.1436,0.1442,0.1446,0.1498,0.1468,0.1508,0.1551,0.1538,0.1541,0.1543,0.1548,0.1551,0.1518,0.1518,0.1518,0,0.1199,0.1211,0.1233,0.1251,0.1274,0.1299,0.132,0.1337,0.1373,0.1396,0.1407,0.1446,0.146,0.1472,0.1512,0.1509,0.1503,0.1508,0.1542,0.1544,0.1546,0.155,0.1553,0.152,0.1519,0.1519,0.1519,0,0.1199,0.1226,0.1234,0.1266,0.1297,0.1316,0.1348,0.138,0.1416,0.144,0.1476,0.1489,0.1523,0.153,0.1545,0.1573,0.1565,0.1538,0.1508,0.1552,0.1555,0.1557,0.1522,0.1521,0.1521,0.152,0,0,0.1159,0.1222,0.1227,0.1254,0.1309,0.1328,0.1372,0.1411,0.1434,0.1479,0.1506,0.1552,0.1577,0.1587,0.159,0.1594,0.1626,0.1595,0.1593,0.1578,0.1611,0.1522,0.1516,0.1595,0.1595,0.1596,0.1609,0,0.1149,0.1182,0.1226,0.1272,0.1289,0.1347,0.1381,0.1432,0.1469,0.1501,0.1528,0.1555,0.1588,0.1605,0.1623,0.1626,0.1633,0.1627,0.1592,0.1592,0.1487,0.1516,0.1597,0.161,0.1611,0.1611,0.1611,0,0.1128,0.1152,0.1191,0.1272,0.1288,0.1331,0.1394,0.143,0.1486,0.151,0.1552,0.1578,0.1632,0.1625,0.166,0.1655,0.1658,0.1642,0.1641,0.1553,0.1506,0.1559,0.1615,0.1615,0.1615,0.1615,0.1614,0,0.1072,0.1134,0.1167,0.1191,0.1274,0.1322,0.1377,0.1444,0.1469,0.152,0.1543,0.1592,0.1624,0.1632,0.1674,0.1671,0.1674,0.1654,0.1562,0.1557,0.1623,0.1619,0.1651,0.1651,0.1651,0.1651,0.1651,0,0.1036,0.1061,0.1146,0.1166,0.1206,0.1297,0.1349,0.1394,0.1453,0.1469,0.1556,0.1562,0.163,0.1655,0.1669,0.1637,0.1679,0.1578,0.155,0.1635,0.1633,0.1624,0.1621,0.1651,0.1651,0.1651,0.1651,0,0.0974,0.1022,0.1062,0.1156,0.1184,0.1223,0.1332,0.1359,0.1426,0.1442,0.1465,0.1563,0.1602,0.1639,0.165,0.1622,0.1591,0.1557,0.1667,0.1644,0.1488,0.1486,0.1465,0.1461,0.1459,0.1457,0.1455,0,0.0942,0.0953,0.1044,0.1065,0.1116,0.1183,0.1225,0.1319,0.1338,0.1421,0.1415,0.1496,0.1543,0.1507,0.1558,0.1549,0.1526,0.1509,0.1492,0.1492,0.1468,0.147,0.1472,0.145,0.145,0.1449,0.1448,0,0.0875,0.0919,0.0955,0.0994,0.1046,0.1092,0.1163,0.1159,0.1245,0.1314,0.133,0.1363,0.14,0.1445,0.1444,0.1434,0.1523,0.1481,0.1486,0.147,0.1474,0.1453,0.1458,0.1439,0.144,0.1441,0.1442,0,0.0825,0.0838,0.089,0.092,0.0967,0.099,0.1042,0.1079,0.1111,0.1194,0.1198,0.1287,0.1372,0.1383,0.1382,0.1371,0.1355,0.1314,0.1328,0.1339,0.1292,0.1279,0.1163,0,0,0,0,0,0.077,0.0785,0.0812,0.0844,0.0888,0.0927,0.0987,0.1038,0.1105,0.1077,0.1129,0.1154,0.1188,0.126,0.1222,0.1328,0.1357,0.128,0.1315,0.1388,0.1399,0.1357,0,0,0,0,0,0,0.0732,0.0758,0.0784,0.0764,0.0783,0.0827,0.0873,0.0928,0.0921,0.0995,0.1031,0.1092,0.1155,0.1194,0.1205,0.1218,0.1217,0.1336,0.1333,0.1382,0.1392,0.14,0.1361,0,0,0,0,0]},{"header":{"parameterUnit":"m.s-1","parameterCategory":2,"la1":30.2991,"la2":30.254,"lo1":-89.0895,"lo2":-89.0444,"dy":0.0017,"dx":0.0017,"nx":28,"ny":28,"refTime":"2025-01-24T09:00:00:Z","depth":"4","parameterNumber":3,"parameterNumberName":"V-component_of_CURRENTS"},"data":[0,0,0,0,0,0,0,0,0,0,0,0,0,0,0,0,0,0,0,0,0,0,0,0,0,0,0,0,0,0,0,0,0,0,0,0,0,0,0,0,0,0,0,0,0,0,0,0,0,0,0,0,0,0,0,0,0,0,0.016,0.016,0,0.0153,0.0153,0.0153,0.0143,0.0143,0.0142,0.0142,0.0146,0.0146,0.0146,0,0,0,0,0,0,0,0,0,0,0,0,0,0.013,0.0131,0.016,0.016,0.016,0.0153,0.0153,0.0153,0.0143,0.0143,0.0142,0.0142,0.0145,0.0146,0.0146,0,0,0,0,0,0,0,0,0,0,0,0,0,0.0135,0.0131,0.016,0.0154,0.0154,0.0153,0.0153,0.0153,0.0143,0.0143,0.0142,0.0142,0.0145,0.0146,0.0146,0.0153,0,0,0.0147,0.0147,0,0,0,0,0,0,0,0,0.0135,0.0136,0.0155,0.0155,0.0154,0.0149,0.0144,0.0153,0.0143,0.0147,0.0142,0.0142,0.0148,0.0148,0.0147,0.0153,0.0153,0.0147,0.0147,0.0147,0.0148,0,0,0,0,0,0,0,0.0135,0.0136,0.0157,0.0155,0.0155,0.014,0.0141,0.0145,0.0149,0.0146,0.0146,0.0145,0.0148,0.0146,0.0147,0.0153,0.0147,0.0147,0.0148,0.0148,0.0128,0.0128,0,0,0,0,0,0,0.0138,0.0136,0.0157,0.0157,0.0144,0.0141,0.0142,0.0151,0.0148,0.0148,0.0146,0.0145,0.0146,0.0146,0.0147,0.0127,0.0147,0.0148,0.0148,0.0129,0.0128,0.0127,0,0,0,0,0,0,0.0138,0.0141,0.0158,0.0146,0.0147,0.0142,0.0152,0.0151,0.0152,0.0148,0.0147,0.0148,0.0146,0.0146,0.015,0.0129,0.0148,0.0148,0.013,0.0129,0.0128,0.0106,0,0,0,0,0,0,0.0137,0.0141,0.0149,0.0147,0.0148,0.0162,0.0152,0.0151,0.0152,0.0151,0.015,0.015,0.0146,0.015,0.0151,0.0129,0.0149,0.0131,0.0129,0.0128,0.0108,0.0105,0.0102,0,0,0,0,0,0.0136,0.0151,0.0149,0.0152,0.0159,0.0163,0.0162,0.0157,0.0152,0.0156,0.0152,0.015,0.0141,0.015,0.0151,0.0129,0.0131,0.013,0.0128,0.0109,0.0105,0.0102,0,0,0,0,0,0,0.0141,0.0151,0.0149,0.0166,0.0165,0.0161,0.0165,0.016,0.016,0.016,0.0153,0.0153,0.0145,0.0144,0.0154,0.0118,0.0131,0.013,0.0116,0.0112,0.0109,0.0057,0.0149,0,0,0,0,0,0.0146,0.016,0.0162,0.0174,0.0176,0.0171,0.0171,0.0168,0.0167,0.0166,0.0164,0.0155,0.0138,0.0133,0.013,0.0119,0.0107,0.0101,0.0098,0.0095,0.0053,0.0011,-0.0001,0.0122,0.0122,0.0122,0,0,0.0148,0.0158,0.0163,0.0175,0.0175,0.0168,0.0171,0.0176,0.0158,0.0168,0.0153,0.0154,0.0136,0.0118,0.0113,0.0115,0.0068,0.0093,0.0091,0.0049,0.0008,-0.0005,-0.0015,0.0121,0.0121,0.0121,0,0,0.015,0.0172,0.0174,0.0177,0.0181,0.0177,0.0179,0.0179,0.0168,0.0165,0.015,0.0125,0.0135,0.0088,0.0071,0.0046,0.0058,0.0064,-0.0001,-0.0039,-0.0051,-0.0061,-0.0034,-0.0042,0.0056,0.0056,0.0056,0,0.0147,0.015,0.0174,0.0172,0.0163,0.0179,0.0162,0.0157,0.0155,0.0131,0.016,0.011,0.0101,0.0027,0.001,0.0032,0.0044,0.0019,-0.0045,-0.0056,-0.0066,-0.0037,-0.0046,0.0054,0.0054,0.0055,0.0055,0,0.0138,0.0141,0.0145,0.0143,0.0142,0.0138,0.0131,0.0126,0.0126,0.0109,0.0064,0.005,0.0007,0.0005,-0.0002,-0.0087,-0.0039,-0.0036,-0.0038,-0.008,-0.0045,-0.0054,0.0053,0.0053,0.0053,0.0054,0,0,0.0116,0.0131,0.0129,0.0126,0.0122,0.0126,0.0092,0.0056,0.0041,0.0025,-0.0011,-0.0079,-0.0086,-0.0112,-0.0123,-0.0172,-0.0214,-0.014,-0.0141,-0.0117,-0.0244,-0.0222,-0.0228,-0.0209,-0.0212,-0.0215,-0.017,0,0.0088,0.0086,0.0086,0.0071,0.0069,0.0062,0.0038,0.0014,0.0007,-0.0007,-0.0069,-0.0084,-0.0129,-0.0126,-0.02,-0.0191,-0.0246,-0.0224,-0.0207,-0.0207,-0.0186,-0.0243,-0.0224,-0.0176,-0.0178,-0.0179,-0.018,0,0.0058,0.0066,0.0051,0.0046,0.0042,0.0032,0.0003,-0.0014,-0.0049,-0.0051,-0.0114,-0.0116,-0.0205,-0.0207,-0.03,-0.027,-0.0292,-0.0294,-0.0291,-0.0288,-0.0205,-0.014,-0.0195,-0.0194,-0.0193,-0.0192,-0.0191,0,0.0044,0.0031,0.0023,0.0023,0.0025,0.0002,-0.0008,-0.0035,-0.0023,-0.007,-0.0036,-0.0154,-0.0145,-0.0239,-0.0272,-0.0274,-0.0329,-0.0319,-0.0332,-0.0325,-0.0344,-0.0335,-0.0428,-0.0428,-0.0428,-0.0428,-0.0429,0,0.0022,0.002,0.0024,0.0032,0.0032,0.0012,0.0014,-0.0008,-0.0005,0.0025,-0.0053,-0.0037,-0.0154,-0.0185,-0.0259,-0.0312,-0.0328,-0.0373,-0.0343,-0.0342,-0.0334,-0.0346,-0.0337,-0.0427,-0.0427,-0.0427,-0.0428,0,0.004,0.0033,0.0043,0.0037,0.0041,0.005,0.0077,0.009,0.0078,0.0126,0.0125,0.0078,0.002,-0.008,-0.0177,-0.0251,-0.0322,-0.0345,-0.0296,-0.0256,-0.0286,-0.0278,-0.0352,-0.0352,-0.0351,-0.0351,-0.0351,0,0.0061,0.0064,0.0079,0.0101,0.0108,0.0124,0.0147,0.0139,0.0172,0.02,0.0237,0.0199,0.0146,0.0046,-0.0099,-0.0241,-0.0283,-0.0304,-0.0381,-0.0331,-0.0293,-0.0286,-0.0279,-0.035,-0.035,-0.035,-0.035,0,0.0101,0.0103,0.0119,0.0166,0.0192,0.0233,0.0261,0.0307,0.031,0.032,0.0347,0.0272,0.0216,0.0073,-0.0035,-0.0152,-0.0287,-0.0301,-0.0303,-0.0376,-0.0329,-0.029,-0.0284,-0.0348,-0.0349,-0.0349,-0.0349,0,0.0137,0.0157,0.017,0.0219,0.0261,0.0311,0.0327,0.0363,0.0396,0.0425,0.0435,0.0344,0.0289,0.0123,0.0019,-0.0094,-0.0142,-0.0189,-0.0199,-0.0202,-0.0202,-0.0123,-0.0081,0,0,0,0,0,0.0166,0.0182,0.0222,0.0261,0.031,0.033,0.039,0.0402,0.0429,0.0466,0.0452,0.039,0.0236,0.0164,0.0055,-0.0005,-0.018,-0.0139,-0.0243,-0.0341,-0.0343,-0.0372,0,0,0,0,0,0,0.0174,0.0206,0.0219,0.0286,0.0323,0.037,0.0406,0.0429,0.0446,0.0464,0.0386,0.0356,0.0201,0.0298,0.005,0.0014,-0.0068,-0.0212,-0.0215,-0.034,-0.0342,-0.0343,-0.0374,0,0,0,0,0]}]]